Weather History for KPOV - October, 2012

Change the Weather History Date:

Saturday, October 13, 2012

  Actual Average (KCAK) Record (KCAK)
Temperature  
Mean Temperature 46 °F 53 °F  
Max Temperature 62 °F 62 °F 82 °F (1969)
Min Temperature 29 °F 43 °F 29 °F (1895)
Degree Days  
Heating Degree Days 20 13  
Month to date heating degree days 139  
Since 1 July heating degree days 278  
Cooling Degree Days 0 0  
Month to date cooling degree days 3  
Year to date cooling degree days 649  
Moisture  
Dew Point 36 °F    
Average Humidity 67    
Maximum Humidity 93    
Minimum Humidity 42    
Precipitation  
Precipitation 0.03 in 0.09 in 0.74 in (1970)
Month to date precipitation 1.20  
Year to date precipitation 31.85  
Snow  
Snow 0.00 in 0.00 in - ()
Month to date snowfall 0.0  
Since 1 July snowfall 0.0  
Since 1 September snowfall 0.0  
Snow Depth -    
Sea Level Pressure  
Sea Level Pressure 30.24 in    
Wind  
Wind Speed 6 mph (SE)    
Max Wind Speed 9 mph    
Max Gust Speed -    
Visibility 10 miles    
Events      
T = Trace of Precipitation, MM = Missing Value Source: NWS Daily Summary

Daily Weather History Graph

Daily Weather History Graph

Search for Another Location

Airport or City:

Trip Planner

Search our weather history database for the weather conditions in past years. The results will help you decide how hot, cold, wet, or windy it might be!

Date:

Astronomy

Oct. 13, 2012 Rise Set
Actual Time 7:34 AM EDT 6:46 PM EDT
Civil Twilight 7:07 AM EDT 7:14 PM EDT
Nautical Twilight 6:35 AM EDT 7:46 PM EDT
Astronomical Twilight 6:03 AM EDT 8:18 PM EDT
Moon 5:22 AM EDT (10/13) 5:30 PM EDT (10/13)
Length of Visible Light 12h 07m
Length of Day
11h 11m
Waning Crescent, 5% of the Moon is Illuminated
Oct 13
Waning Crescent
Oct 15
New
Oct 21
First Quarter
Oct 29
Full
Nov 6
Last Quarter

Hourly Weather History & Observations

Time (EDT) Temp. Windchill Dew Point Humidity Pressure Visibility Wind Dir Wind Speed Gust Speed Precip Events Conditions
12:14 AM 33.1 °F 27.7 °F 29.8 °F 88% 30.40 in 10.0 mi East 5.8 mph - N/A   Clear
12:33 AM 32.2 °F 26.7 °F 29.5 °F 90% 30.40 in 10.0 mi East 5.8 mph - N/A   Clear
12:54 AM 32.7 °F 27.3 °F 29.3 °F 87% 30.39 in 10.0 mi ESE 5.8 mph - N/A   Clear
1:14 AM 33.1 °F 27.7 °F 29.3 °F 86% 30.40 in 10.0 mi East 5.8 mph - N/A   Clear
1:53 AM 31.6 °F 27.0 °F 28.4 °F 88% 30.41 in 10.0 mi East 4.6 mph - N/A   Clear
2:14 AM 32.0 °F 25.6 °F 28.9 °F 88% 30.40 in 10.0 mi East 6.9 mph - N/A   Clear
2:34 AM 31.8 °F 27.3 °F 28.2 °F 87% 30.41 in 10.0 mi East 4.6 mph - N/A   Clear
2:53 AM 32.5 °F 28.1 °F 28.6 °F 85% 30.39 in 10.0 mi ESE 4.6 mph - N/A   Clear
3:14 AM 32.0 °F 24.8 °F 28.4 °F 87% 30.37 in 10.0 mi East 8.1 mph - N/A   Clear
3:34 AM 32.0 °F 26.4 °F 28.2 °F 86% 30.36 in 10.0 mi East 5.8 mph - N/A   Clear
3:53 AM 32.9 °F 26.7 °F 28.2 °F 83% 30.35 in 10.0 mi East 6.9 mph - N/A   Clear
4:14 AM 32.9 °F 27.5 °F 28.0 °F 82% 30.37 in 10.0 mi ESE 5.8 mph - N/A   Clear
4:34 AM 33.1 °F 27.7 °F 27.9 °F 81% 30.37 in 10.0 mi East 5.8 mph - N/A   Clear
4:54 AM 31.6 °F 26.0 °F 27.5 °F 85% 30.37 in 10.0 mi East 5.8 mph - N/A   Clear
5:14 AM 30.2 °F 24.3 °F 27.5 °F 90% 30.37 in 10.0 mi East 5.8 mph - N/A   Clear
5:34 AM 30.2 °F 26.7 °F 27.3 °F 89% 30.37 in 10.0 mi East 3.5 mph - N/A   Clear
5:53 AM 29.3 °F 24.3 °F 27.0 °F 91% 30.37 in 10.0 mi East 4.6 mph - N/A   Clear
6:14 AM 30.0 °F 25.2 °F 27.1 °F 89% 30.37 in 10.0 mi East 4.6 mph - N/A   Clear
6:34 AM 30.0 °F 24.1 °F 27.3 °F 90% 30.37 in 10.0 mi East 5.8 mph - N/A   Clear
6:53 AM 29.3 °F 22.3 °F 27.5 °F 93% 30.36 in 10.0 mi East 6.9 mph - N/A   Clear
7:14 AM 30.0 °F 24.1 °F 27.5 °F 90% 30.35 in 10.0 mi East 5.8 mph - N/A   Clear
7:34 AM 29.8 °F 23.9 °F 27.1 °F 90% 30.35 in 10.0 mi East 5.8 mph - N/A   Clear
7:53 AM 29.8 °F 24.9 °F 27.3 °F 90% 30.36 in 10.0 mi East 4.6 mph - N/A   Clear
8:14 AM 32.0 °F 25.6 °F 28.4 °F 87% 30.35 in 10.0 mi East 6.9 mph - N/A   Clear
8:34 AM 33.4 °F 27.3 °F 29.1 °F 84% 30.34 in 10.0 mi East 6.9 mph - N/A   Clear
8:53 AM 34.7 °F 28.1 °F 29.3 °F 81% 30.33 in 10.0 mi ESE 8.1 mph - N/A   Clear
9:14 AM 36.7 °F 31.2 °F 30.4 °F 78% 30.33 in 10.0 mi ESE 6.9 mph - N/A   Clear
9:53 AM 40.3 °F 36.3 °F 30.6 °F 68% 30.33 in 10.0 mi SE 5.8 mph - N/A   Clear
10:34 AM 44.6 °F 42.2 °F 31.8 °F 61% 30.33 in 10.0 mi SE 4.6 mph - N/A   Clear
10:53 AM 46.9 °F - 31.8 °F 56% 30.32 in 10.0 mi SE 6.9 mph - N/A   Clear
11:34 AM 51.3 °F - 32.0 °F 48% 30.30 in 10.0 mi SSE 5.8 mph - N/A   Clear
11:54 AM 53.6 °F - 33.4 °F 46% 30.28 in 10.0 mi SSE 4.6 mph - N/A   Clear
12:14 PM 55.2 °F - 34.0 °F 45% 30.27 in 10.0 mi SE 4.6 mph - N/A   Clear
12:34 PM 56.7 °F - 34.2 °F 43% 30.27 in 10.0 mi SSE 5.8 mph - N/A   Clear
12:54 PM 57.0 °F - 33.8 °F 42% 30.26 in 10.0 mi SE 4.6 mph - N/A   Clear
1:14 PM 57.6 °F - 35.2 °F 43% 30.25 in 10.0 mi SSE 6.9 mph - N/A   Clear
1:33 PM 58.6 °F - 36.0 °F 43% 30.24 in 10.0 mi SSE 6.9 mph - N/A   Clear
1:54 PM 59.2 °F - 36.7 °F 43% 30.22 in 10.0 mi SE 8.1 mph - N/A   Clear
2:14 PM 59.5 °F - 37.4 °F 44% 30.22 in 10.0 mi SE 5.8 mph - N/A   Clear
2:33 PM 60.1 °F - 37.9 °F 44% 30.20 in 10.0 mi SE 6.9 mph - N/A   Clear
2:54 PM 60.8 °F - 38.3 °F 43% 30.18 in 10.0 mi SE 5.8 mph - N/A   Clear
3:14 PM 61.7 °F - 39.6 °F 44% 30.17 in 10.0 mi SE 5.8 mph - N/A   Clear
3:33 PM 61.9 °F - 39.9 °F 44% 30.15 in 10.0 mi SE 9.2 mph - N/A   Clear
3:54 PM 61.7 °F - 40.8 °F 46% 30.15 in 10.0 mi SSE 5.8 mph - N/A   Clear
4:14 PM 61.9 °F - 41.2 °F 47% 30.12 in 10.0 mi SE 6.9 mph - N/A   Clear
4:33 PM 61.9 °F - 41.9 °F 48% 30.12 in 10.0 mi South 5.8 mph - N/A   Scattered Clouds
4:54 PM 61.9 °F - 42.1 °F 48% 30.11 in 10.0 mi SSE 5.8 mph - N/A   Overcast
5:14 PM 62.1 °F - 42.1 °F 48% 30.10 in 10.0 mi SSE 4.6 mph - N/A   Mostly Cloudy
5:33 PM 61.7 °F - 42.6 °F 50% 30.10 in 10.0 mi SSE 4.6 mph - N/A   Scattered Clouds
5:54 PM 61.3 °F - 42.8 °F 51% 30.08 in 10.0 mi SE 5.8 mph - N/A   Clear
6:14 PM 61.7 °F - 42.8 °F 50% 30.07 in 10.0 mi SSE 3.5 mph - N/A   Clear
6:34 PM 61.0 °F - 43.2 °F 52% 30.06 in 10.0 mi SSE 5.8 mph - N/A   Clear
6:54 PM 61.7 °F - 42.8 °F 50% 30.07 in 10.0 mi South 4.6 mph - N/A   Clear
7:14 PM 61.5 °F - 42.6 °F 50% 30.06 in 10.0 mi SSE 3.5 mph - N/A   Mostly Cloudy
7:33 PM 62.1 °F - 42.3 °F 48% 30.06 in 10.0 mi SSE 6.9 mph - N/A   Overcast
8:14 PM 59.0 °F - 45.9 °F 62% 30.06 in 10.0 mi South 3.5 mph - N/A   Overcast
8:33 PM 57.6 °F - 47.5 °F 69% 30.05 in 10.0 mi Calm Calm - 0.02 in   Overcast
8:54 PM 57.2 °F - 48.4 °F 72% 30.04 in 10.0 mi Calm Calm - 0.03 in   Overcast
9:14 PM 57.9 °F - 48.2 °F 70% 30.03 in 10.0 mi South 5.8 mph - N/A   Overcast
9:33 PM 58.8 °F - 48.2 °F 68% 30.02 in 10.0 mi South 8.1 mph - N/A   Overcast
9:54 PM 59.5 °F - 47.8 °F 65% 30.02 in 10.0 mi South 5.8 mph - N/A   Overcast
10:14 PM 60.1 °F - 47.7 °F 64% 30.02 in 10.0 mi South 6.9 mph - N/A   Overcast
10:33 PM 60.6 °F - 48.2 °F 64% 30.02 in 10.0 mi SSW 6.9 mph - N/A   Mostly Cloudy
10:54 PM 61.0 °F - 48.6 °F 64% 30.01 in 10.0 mi SSW 5.8 mph - N/A   Mostly Cloudy
11:14 PM 61.7 °F - 49.1 °F 63% 30.01 in 10.0 mi SSW 6.9 mph - N/A   Mostly Cloudy